Location: Bakov nad Jizerou
(50.4784°N, 14.9394°E)
Time: 14:00:23
(UTC+00:00)

MTI - Pass Details

Date: 16 June 2021
Orbit: 376 x 386 km, 97.5° (Epoch: 03 August)

Event Time Altitude Azimuth Distance (km) Brightness Sun altitude
Rises 22:33:29 0° 16° (NNE) 2,306 8.8 -15.9°
Reaches altitude 10° 22:35:29 10° 21° (NNE) 1,444 7.4 -15.9°
Maximum altitude 22:38:31 56° 101° (E) 477 3.9 -16.0°
Enters shadow 22:39:14 42° 153° (SSE) 575 4.0 -16.0°
